Погода в Дебёсах

Россия / Удмуртская Республика     57°39′05″N   53°48′21″E
темп.,
°C
ветер,
м/с
пор.,
м/с
влажн.,
%
обл.,
%
осадки,
мм/ч
давл.,
гПа
погр.,
м
11 апреля, вс
вс1101:00+2ю12100100 2.9 102663
04:00+2св00100100 7.1 102614
07:00+2ююз12100100 3.0 102747
10:00+3зюз26100100 3.3 1028220
13:00+2юз01100100 5.6 102819
16:00+4зсз25100100 7.9 1030214
19:00+3сз2597100 0.0 1032184
22:00−1зсз1299100 0.0 103445
12 апреля, пн
пн1201:00−2з1199100 0.0 103512
04:00−2зсз1299100 0.0 103740
07:00+1ссз1499100 0.0 1039111
10:00+5с238956 0.0 1039320
13:00+8св22641 0.0 1039766
16:00+9св22623 0.0 1039730
19:00+3всв11918 0.0 104010
22:00−1в119370 0.0 104112
13 апреля, вт
вт1301:00−1вюв119355 0.0 104012
04:00−1вюв119662 0.0 104012
07:00+2юв248884 0.0 103990
10:00+9ююв246559 0.0 1037366
13:00+12ю35576 0.0 1035656
16:00+13ююз256589 0.0 1033666
19:00+9ююз238766 0.0 103248
22:00+7ююз279399 0.0 1032117
14 апреля, ср
ср1401:00+7юз2994100 0.0 1031159
04:00+6юз2393100 0.0 103139
07:00+6юз2691100 0.0 1030126
10:00+12юз356342 0.0 1029485
13:00+15юз454566 0.0 10281056
16:00+16зюз364648 0.0 10261209
19:00+11зюз226859 0.0 102535
22:00+8юз247734 0.0 102563
15 апреля, чт
чт1501:00+6юз248545 0.0 102470
04:00+5юз238712 0.0 102444
07:00+6юз26805 0.0 1023149
10:00+13юз35556 0.0 1021486
13:00+16юз463627 0.0 10201181
16:00+16зюз4634100 0.0 10181370
19:00+12юз2357100 0.0 101748
22:00+9юз2467100 0.0 101553